Location: Chervonnoye
(48.6000°N, 34.4000°E)
Time: 06:09:29
(UTC+00:00)

Nadezhda 1 Rocket - Pass Details

Date: 21 April 2021
Orbit: 940 x 1006 km, 83.0° (Epoch: 13 May)

Event Time Altitude Azimuth Distance (km) Brightness Sun altitude
Exits shadow 23:40:21 21° 274° (W) 2,092 5.5 -23.7°
Maximum altitude 23:42:00 23° 296° (WNW) 1,989 5.5 -23.6°
Drops below altitude 10° 23:46:58 10° 347° (NNW) 2,778 6.9 -23.1°
Sets 23:50:06 0° 2° (N) 3,723 8.0 -22.8°
